CAPE
0 0 0 0 0 0 0 0 0 0 18 37 40 320 556 700 812 862 1054 935 685 504 570 656 438 781 384 292 440 736 1043 473 0 1 2 0 0 0 0 0 0 0 0 2 17 73 76 185 568 619 719 883 1078 1286 1421 1470 1547 1658 1673 1690 1752 1690 1692 1657 1527 1491 1066 628 621 714 684 604 760 826 957 1170 1292 1490 1877 2308 2467 2732 2914 2666 2540 2601
0 0 0 0 0 0 0 0 0 0 87 14 154 602 732 790 790 996 1126 961 764 536 390 467 355 507 284 483 614 1190 613 240 0 0 1 0 0 0 0 0 0 0 0 0 0 10 45 98 305 535 676 817 980 1181 1378 1423 1488 1562 1481 1396 1404 1359 1481 1467 1342 1399 1030 594 653 687 658 738 795 1232 1182 1099 1435 1593 2120 2342 2554 2814 2834 2605 2390 2646
0 0 0 0 0 0 0 0 0 0 108 321 441 716 719 702 847 958 836 928 849 601 408 568 455 506 404 486 541 758 1209 1487 1066 0 0 0 0 0 0 0 0 0 0 0 0 1 36 90 325 556 658 761 872 1038 1273 1310 1340 1267 1151 1007 1059 1079 1174 1163 1157 1232 881 556 668 688 682 844 863 923 1113 1239 1522 1971 2216 2450 2654 2848 2771 2585 2381 2671
0 0 0 0 0 0 0 0 0 0 0 368 507 612 584 692 709 630 821 957 873 1012 505 484 631 504 525 452 562 877 925 1103 1758 606 0 0 0 0 0 0 0 0 0 0 0 0 28 117 303 509 625 727 776 943 1108 1151 1118 1041 1027 888 980 1018 1027 967 1044 1097 860 632 678 736 780 877 999 1108 1590 1357 1665 2034 2262 2466 2709 2839 2749 2495 2368 2689
0 0 0 0 0 0 0 0 9 0 0 1 527 509 453 653 418 826 854 879 798 744 626 594 559 418 504 371 466 852 847 807 1136 442 0 0 0 0 0 0 0 0 0 0 0 0 28 108 263 462 606 694 752 874 998 1051 1060 1077 1077 923 961 914 933 923 1036 928 766 812 844 1047 963 1213 1357 1553 1341 1416 1796 2036 2412 2441 2631 2784 2743 2459 2333 2667
0 0 0 0 0 0 0 0 10 6 0 0 81 220 374 478 563 829 814 661 517 384 548 536 398 531 418 409 368 883 669 672 1226 419 12 22 0 0 0 0 0 0 0 0 0 2 32 78 50 84 534 645 694 787 914 960 1012 1018 1023 913 962 850 932 886 1009 817 802 1127 878 1107 1080 1098 1113 1518 1467 1521 1749 2089 2388 2510 2542 2708 2706 2475 2374 2623
0 0 0 0 0 0 0 0 1 2 9 0 2 5 289 437 720 761 642 503 332 134 489 908 187 317 324 332 344 538 603 531 851 910 816 511 512 6 0 0 0 0 0 0 0 0 14 26 8 17 440 526 608 732 834 898 952 957 955 941 942 810 889 927 1155 862 1160 1123 1042 1002 1175 1117 1111 1448 1559 1556 1789 2093 2325 2441 2458 2639 2676 2512 2425 2634
0 0 0 0 0 0 0 0 0 1 9 0 0 3 408 570 743 690 532 293 252 867 800 565 182 174 182 264 384 518 573 447 499 883 1043 932 750 126 0 0 0 0 0 0 0 0 10 9 10 38 109 402 527 683 786 865 904 904 893 853 877 793 724 915 1151 1053 1018 1103 1122 1020 1082 1214 1128 1385 1682 1733 1879 2138 2414 2448 2421 2541 2662 2555 2410 2602
0 0 0 0 0 0 0 0 0 6 0 0 2 277 500 653 776 585 399 260 393 360 233 508 385 6 14 384 371 348 458 529 535 622 748 1104 748 680 700 670 0 0 0 0 0 3 2 8 10 46 104 344 454 583 714 786 798 819 806 788 786 763 734 685 904 1084 982 1005 1068 1160 1242 1309 1130 1299 1691 1864 2185 2222 2435 2422 2380 2428 2580 2577 2498 2475
0 0 0 0 0 0 0 0 0 0 0 0 114 381 550 586 635 455 281 361 383 154 235 335 379 5 0 7 350 324 333 326 154 540 645 984 798 667 959 1044 1214 24 0 0 0 3 3 10 22 62 102 104 395 491 617 686 713 724 781 811 836 816 767 470 774 1080 946 959 1003 1179 1330 1321 1235 1553 1709 1905 2035 2173 2392 2410 2341 2348 2502 2515 2481 2367
0 0 0 0 0 0 0 0 0 0 6 330 432 502 533 542 499 302 213 187 151 43 197 378 305 0 0 30 16 70 220 446 492 648 809 1087 993 592 878 1048 1257 1423 0 0 0 0 1 15 33 60 97 93 306 393 524 592 599 684 792 826 845 854 834 555 386 956 965 1064 1128 1050 1165 1291 1265 1400 1730 1939 2009 2078 2299 2328 2318 2290 2396 2477 2478 2312
0 0 0 0 0 0 0 0 0 2 264 441 470 488 507 549 519 253 208 56 0 0 0 396 352 76 1 0 60 226 769 661 752 659 708 956 1021 650 730 995 1024 1272 1084 0 0 0 0 4 26 52 78 78 56 278 396 504 516 698 781 804 848 859 854 460 402 888 956 1144 1268 1154 1131 1227 1244 1333 1643 1916 2032 2035 2144 2185 2229 2220 2192 2376 2502 2476
0 0 0 0 0 0 0 0 0 1 282 330 422 484 433 323 315 323 0 0 0 0 0 334 320 208 7 155 18 170 487 661 882 850 719 754 845 757 776 621 749 1140 853 379 0 0 0 6 18 36 54 65 63 64 284 450 487 702 782 790 800 847 864 424 458 852 954 1160 1324 1340 1258 1180 1158 1262 1442 1727 1947 2026 2006 2076 2137 2137 2074 2189 2375 2439
0 0 0 0 0 0 0 0 0 0 194 276 318 279 208 157 0 0 0 0 0 0 4 193 219 177 19 106 271 145 354 952 793 920 786 740 1008 758 614 589 1038 1129 1048 699 129 0 0 6 15 18 34 76 88 81 146 487 448 665 803 765 769 800 853 428 535 811 927 1136 1349 1473 1434 1185 1382 1267 1295 1414 1648 1892 1918 1970 2014 2067 1972 2054 2283 2325
0 0 0 0 0 0 0 0 0 0 108 293 310 174 203 119 43 93 2 3 0 10 5 129 139 30 24 99 28 341 399 1265 1054 1050 872 1255 687 678 969 1058 1085 987 1131 912 265 2 0 0 1 5 22 72 93 99 112 488 470 569 785 765 736 744 873 677 593 817 875 1068 1206 1560 1656 1482 1484 1317 1324 1286 1251 1444 1743 1850 1920 1961 1830 1938 2197 2209
0 0 0 0 0 0 0 0 0 0 114 383 376 265 165 97 0 65 8 10 4 244 75 117 240 160 138 382 506 510 724 1183 1364 1575 1440 999 971 842 1025 1045 1147 922 867 1335 1039 741 528 138 0 0 5 54 81 124 136 354 550 453 696 772 696 694 891 855 812 848 893 959 1092 1183 1632 1795 1751 1647 1480 1434 1442 1310 1391 1602 1724 1791 1701 1779 1933 1996
0 0 0 0 0 0 0 0 0 0 0 0 241 189 110 121 0 10 79 199 200 194 225 196 274 315 310 361 642 799 714 732 930 1295 1414 1166 975 633 774 866 868 969 995 1186 1042 549 430 432 320 46 2 9 49 100 168 333 516 509 554 818 758 718 908 819 812 900 973 938 1068 1120 1141 1523 1749 1715 1600 1470 1425 1452 1485 1650 1659 1677 1597 1561 1636 1771
0 0 0 0 0 0 0 0 0 0 0 0 57 130 25 58 81 1 2 168 151 132 181 184 268 123 273 315 544 819 761 606 757 823 815 852 658 620 758 988 1018 790 1042 1148 1221 950 473 539 726 502 180 18 21 37 93 422 582 604 548 749 827 794 990 850 799 946 1026 1044 1045 1150 1129 1148 1404 1612 1593 1374 1332 1526 1621 1812 1784 1620 1540 1653 1758 1783
0 0 0 0 0 0 0 0 0 0 0 0 76 29 0 0 0 0 6 21 77 96 157 164 156 184 248 286 456 618 501 720 734 796 693 518 557 646 723 918 1172 1152 1204 1315 1204 966 633 518 642 790 743 785 558 352 53 295 594 661 647 721 764 788 1005 1026 849 985 1052 1141 1123 1177 1218 1179 1216 1508 1717 1536 1392 1563 1633 1862 1895 1791 1651 1728 1930 1976
0 0 0 0 0 0 0 0 0 0 0 0 2 6 1 0 0 0 0 74 3 144 178 158 207 257 190 34 430 419 446 545 654 699 669 766 696 584 744 897 839 832 992 1287 1252 1051 988 901 1128 1191 739 1102 1289 1104 772 402 552 688 729 968 912 770 861 1146 991 1098 1084 1241 1272 1252 1316 1339 1272 1409 1637 1699 1527 1540 1681 1804 1966 1911 1812 1728 1926 2089
0 0 0 0 0 0 0 0 0 0 0 0 9 15 5 10 9 0 0 25 90 128 104 160 124 105 127 83 462 539 451 389 478 535 664 686 637 744 763 839 803 764 856 1310 1544 1552 1357 1297 1654 1391 1159 1639 1854 1888 1473 1054 635 702 795 940 1131 982 993 1330 1209 1060 1174 1233 1367 1413 1390 1399 1407 1394 1530 1651 1691 1579 1613 1738 1902 2028 1945 1860 1880 2009
0 0 0 0 0 0 0 0 0 0 0 0 10 20 25 43 19 1 7 0 205 9 23 34 95 133 10 98 369 530 436 408 359 456 572 312 538 628 792 958 1081 1108 1015 1266 1431 1483 1623 1557 1410 1373 1538 1441 1556 1532 1440 1336 1262 994 978 1018 1220 1157 1104 1430 1562 1290 1280 1274 1331 1461 1488 1475 1440 1438 1472 1566 1615 1671 1657 1606 1657 1824 2058 2119 2114 2089
8 2 0 1 0 4 0 0 0 0 0 0 6 0 22 37 24 12 15 130 198 99 61 70 28 36 25 118 333 504 500 468 469 513 527 395 438 660 714 808 1048 1071 1196 1140 1154 1144 1213 1412 1453 1527 1452 1337 1551 1404 1163 1360 1325 1362 1161 1180 1442 1382 1262 1418 1691 1637 1484 1488 1416 1434 1533 1572 1560 1496 1490 1491 1508 1542 1602 1700 1667 1604 1654 1852 2091 2160
443 9 17 21 3 5 0 0 0 0 0 1 7 10 4 9 4 3 7 117 212 192 155 155 124 110 48 128 320 421 468 396 444 480 299 312 342 524 783 927 934 961 808 1045 1091 946 993 1023 1100 1106 999 972 1130 1168 1061 1129 1424 1361 1188 1114 1168 1632 1752 1776 1937 2079 2028 1972 1824 1612 1538 1585 1608 1623 1574 1505 1467 1434 1432 1458 1556 1690 1704 1703 1718 1852
20 27 21 35 26 30 16 0 0 2 0 17 20 21 8 8 5 3 95 248 205 184 190 0 14 150 145 172 342 388 390 332 302 314 4 5 369 656 728 749 1035 757 808 924 1076 1111 1090 1037 984 930 923 874 899 1070 1074 922 1030 1500 1529 1421 1210 1520 1610 1625 1737 2024 2120 2107 2002 1811 1673 1633 1669 1680 1676 1616 1500 1419 1389 1380 1372 1390 1467 1614 1681 1686
13 22 18 35 35 36 20 1 0 4 22 18 0 0 0 136 28 152 228 149 229 171 184 64 46 258 214 216 301 372 345 292 264 175 0 37 291 495 585 752 787 964 937 965 1022 985 1048 881 899 842 812 866 934 939 1132 1150 971 842 1440 1705 1455 1299 1502 1486 1589 1792 2038 2038 2100 2052 1836 1740 1723 1709 1698 1661 1578 1517 1477 1465 1442 1436 1396 1357 1365 1426
37 41 23 43 41 41 26 5 0 0 2 0 0 0 0 154 0 0 118 41 12 174 213 128 168 355 191 176 248 322 310 233 244 190 195 291 362 433 611 776 871 865 762 872 868 802 658 647 937 1042 925 965 968 922 1098 1148 1108 1040 1192 1230 1595 1879 1664 1668 1618 1650 1794 1965 2067 2217 2120 1934 1869 1869 1836 1828 1815 1679 1535 1507 1492 1472 1443 1417 1414 1405
56 49 42 48 50 46 36 17 9 8 27 20 0 0 0 0 0 47 29 97 68 204 251 142 286 215 234 190 280 335 285 196 172 183 284 309 333 421 583 724 772 788 764 696 662 644 612 528 652 809 985 1062 980 1019 1002 905 848 1096 1152 1102 1136 1203 1407 1779 1813 1625 1518 1720 1966 2222 2293 2102 1932 2001 2039 2073 2060 1979 1823 1644 1540 1511 1451 1413 1451 1473
53 60 52 51 70 64 48 27 18 18 24 16 8 0 0 0 1 206 167 179 249 72 111 234 320 235 269 260 298 308 278 248 220 229 274 348 353 417 534 622 699 760 722 679 631 600 541 655 618 644 652 805 965 1131 1032 991 981 914 970 1054 1109 1062 1011 1076 1424 1663 1762 1692 1709 1856 1982 2028 1916 1867 2008 2034 2008 1965 1854 1797 1766 1665 1617 1562 1512 1456
67 57 55 46 47 55 26 17 14 12 21 20 24 6 0 0 1 112 201 308 330 284 205 258 342 275 304 298 298 317 256 228 196 104 38 295 377 441 506 578 665 656 609 639 581 651 653 568 597 604 588 836 946 985 972 960 992 951 901 983 1053 1088 1128 1114 1074 934 1064 1317 1555 1689 1839 1889 1874 1892 1939 1840 1771 1818 1797 1620 1463 1597 1632 1648 1482 1370
61 54 35 31 15 24 17 16 11 14 37 56 45 27 196 222 254 255 318 432 373 298 358 394 392 352 319 301 271 247 204 163 179 26 23 8 204 350 469 546 616 621 602 586 557 549 532 537 548 590 605 645 678 758 759 798 797 830 852 846 920 1042 1087 1134 1020 1063 1005 967 941 1034 1142 1418 1716 1888 1810 1452 1243 1403 1549 1541 1422 1276 1415 1508 1487 1208
34 29 18 18 5 1 0 0 1 6 2 6 23 33 144 345 354 397 497 492 367 483 473 493 431 376 366 328 289 218 175 200 162 96 29 10 4 0 291 416 505 538 567 553 564 550 501 519 538 532 586 596 632 654 636 596 540 532 521 588 717 995 1282 1195 1061 1034 1139 1220 1212 1230 1178 1130 1216 1294 1257 1155 1058 964 1073 1185 1127 1184 1048 1054 1037 1265
28 13 3 6 1 0 0 2 0 0 0 0 1 27 118 147 231 363 416 413 403 530 487 432 405 481 467 398 331 260 242 221 67 71 10 6 0 0 184 252 310 395 444 505 513 483 506 484 459 426 450 414 451 503 468 436 413 407 420 474 609 664 566 775 954 994 1114 1055 1141 1202 1346 1246 1269 1248 1306 1166 1198 1206 1159 960 843 750 886 1019 939 991
28 19 2 6 16 2 2 0 0 0 0 3 6 16 35 259 412 382 420 424 466 484 485 471 468 481 430 368 340 255 229 160 84 30 5 2 0 0 54 198 240 298 366 435 424 431 422 363 304 288 309 384 408 436 488 458 406 330 315 308 368 381 444 487 561 770 754 788 1056 1132 1203 1197 1164 1064 1024 1042 1119 1187 1177 1173 1100 1077 1056 1171 1294 1286
10 32 10 0 24 16 0 1 8 13 6 4 3 19 47 50 358 441 527 462 556 483 461 496 520 436 480 451 341 352 190 101 25 5 0 0 0 0 0 36 179 190 230 309 389 394 370 306 253 200 219 312 338 340 366 422 417 324 268 237 257 289 329 364 366 526 611 684 656 652 1036 1081 965 919 895 869 903 868 838 914 1063 983 1218 1268 1367 1377
7 11 4 1 0 1 0 8 15 9 6 0 0 38 107 110 550 525 564 533 551 548 531 538 520 488 552 491 410 358 118 112 26 0 0 0 0 0 0 0 58 181 172 155 250 366 303 207 204 219 274 265 271 300 324 358 334 272 272 278 270 328 361 402 409 377 403 451 489 462 475 597 727 823 874 873 808 810 878 808 806 939 1003 1024 1154 1088
0 7 2 0 0 0 0 4 4 9 2 0 0 0 126 591 592 611 648 595 563 595 531 483 454 462 369 375 384 378 299 146 170 109 0 0 0 0 0 0 0 0 158 90 49 137 144 158 162 201 239 275 299 295 285 290 282 302 289 258 249 260 295 326 358 383 416 428 456 494 434 452 510 572 619 668 696 730 761 823 847 829 889 898 968 1020
0 0 0 0 2 4 1 1 3 5 7 9 0 0 0 122 297 630 595 525 505 590 558 516 464 448 386 398 384 320 288 232 180 149 0 0 0 0 0 0 0 0 0 122 199 162 167 154 154 176 200 222 257 237 218 219 213 187 174 0 0 0 0 31 34 209 232 247 263 300 354 399 419 464 512 538 561 593 638 666 694 694 656 722 790 914
0 0 0 0 2 10 13 13 24 13 14 11 6 0 0 0 191 672 561 513 504 626 618 529 480 440 409 420 397 367 284 229 207 174 125 11 3 0 0 0 0 0 0 0 78 119 120 115 80 75 100 106 62 0 0 0 0 0 0 0 0 0 0 0 0 0 0 0 0 0 0 0 150 190 242 304 352 388 439 478 520 544 511 528 649 789
0 0 0 0 0 0 5 13 11 9 3 2 76 176 146 312 445 494 416 399 386 522 598 459 486 442 441 464 424 369 291 256 238 199 173 128 25 14 0 0 0 0 0 0 0 0 0 0 0 0 0 0 0 0 0 0 0 0 0 0 0 0 0 0 0 0 0 0 0 0 0 0 0 0 0 0 0 8 180 217 263 309 358 619 705 522
0 0 0 0 0 41 0 0 0 0 0 0 0 317 340 382 496 396 232 391 324 416 460 472 470 472 466 397 332 321 280 282 262 262 240 211 136 32 54 0 0 0 0 0 0 0 0 0 0 0 0 0 0 0 0 0 0 0 0 0 0 0 0 0 0 0 0 0 0 0 0 0 0 0 0 0 0 0 0 0 442 512 575 714 505 299
0 0 0 0 0 0 0 0 0 0 0 0 0 167 275 0 0 0 0 320 406 463 508 494 490 473 443 395 306 248 274 254 13 192 209 173 69 15 2 0 0 0 0 0 0 0 0 0 0 0 0 0 0 0 0 0 0 0 0 0 0 0 0 0 0 0 0 0 0 0 0 0 0 0 0 0 0 0 0 0 84 369 301 431 171 22
0 0 0 0 0 0 0 0 0 0 0 0 0 0 0 0 0 0 93 311 521 518 514 449 447 455 353 282 162 141 215 280 25 101 32 37 16 4 0 0 0 0 0 0 0 0 0 0 0 0 0 0 0 0 0 0 0 0 0 0 0 0 0 0 0 0 0 0 0 0 0 0 0 0 0 0 0 0 0 0 0 0 0 0 0 0
0 0 0 0 0 0 0 0 0 0 0 0 0 0 0 0 0 0 278 385 641 680 616 521 424 405 348 352 258 234 227 14 0 11 23 71 24 0 0 0 0 0 0 0 0 0 0 0 0 0 0 0 0 0 0 0 0 0 0 0 0 0 0 0 0 0 0 0 0 0 0 0 0 0 0 0 0 0 0 0 0 0 0 0 0 0
0 0 153 16 0 0 0 0 0 0 0 0 0 0 0 0 0 13 268 390 616 717 652 511 450 388 423 387 280 232 157 47 193 170 97 0 0 0 0 0 0 0 0 0 0 0 0 0 0 0 0 0 0 0 0 0 0 0 0 0 0 0 0 0 0 0 0 0 0 0 0 0 0 0 0 0 0 0 0 0 0 0 0 0 0 0
0 0 0 0 0 0 0 0 0 0 0 0 0 0 0 0 0 0 0 46 340 516 504 509 477 487 411 372 302 23 0 0 36 203 158 0 0 0 0 0 0 0 0 0 0 0 0 0 0 0 0 0 0 0 0 0 0 0 0 0 0 0 0 0 0 0 0 0 0 0 0 0 0 0 0 0 0 0 0 0 0 0 0 0 0 0
0 0 0 0 0 0 46 0 0 3 0 0 0 0 0 0 0 0 0 164 189 275 378 404 422 401 356 293 221 73 0 0 0 26 0 0 0 0 0 0 0 0 0 0 0 0 0 0 0 0 0 0 0 0 0 0 0 0 0 0 0 0 0 0 0 0 0 0 0 0 0 0 0 0 0 0 0 0 0 0 0 0 0 0 0 0
5 0 0 0 0 0 0 0 0 0 0 0 0 0 0 0 0 0 0 46 227 267 296 282 254 357 374 376 299 223 2 0 0 0 151 0 0 0 0 0 0 0 0 0 0 0 0 0 0 0 0 0 0 0 0 0 0 0 0 0 0 0 0 0 0 0 0 0 0 0 0 0 0 0 0 0 0 0 0 0 0 0 0 0 0 0
0 9 0 0 0 0 0 0 0 0 0 0 0 0 0 0 0 0 0 0 0 5 66 119 103 52 37 40 10 3 16 7 3 0 36 3 0 0 0 0 0 0 0 0 0 0 0 0 0 0 0 0 0 0 0 0 0 0 0 0 0 0 0 0 0 0 0 0 0 0 0 0 0 0 0 0 0 0 0 0 0 0 0 0 0 0
0 0 0 0 0 0 0 0 0 58 21 0 0 0 0 0 0 0 0 0 0 0 0 0 0 0 10 5 0 0 0 0 0 0 2 3 0 0 0 0 0 0 0 0 0 0 0 0 0 0 0 0 0 0 0 0 0 0 0 0 0 0 0 0 0 0 0 0 0 0 0 0 0 0 0 0 0 0 0 38 0 0 0 0 0 0
3 28 0 0 0 0 0 0 0 0 0 0 0 0 0 0 0 0 0 0 0 0 0 0 0 0 0 0 0 0 0 0 0 0 0 0 0 0 0 0 0 0 0 0 0 0 0 0 0 0 0 0 0 0 0 0 0 0 0 0 0 0 0 0 0 0 0 0 0 9 16 4 0 0 0 4 9 6 0 0 0 0 0 0 0 0
Wind_Speed
nan nan nan nan nan nan nan nan nan nan nan nan nan 19 15 17 22 17 15 9 12 7 5 8 16 17 17 14 17 22 23 11 nan nan nan nan nan nan nan nan nan nan nan nan nan nan nan 6 7 8 9 9 8 9 9 9 9 9 8 8 8 8 7 6 6 8 8 9 10 13 14 14 13 13 15 17 19 19 17 17 17 16 16 16 17 17
nan nan nan nan nan nan nan nan nan nan nan nan 19 23 24 20 20 20 18 14 12 9 7 16 15 17 17 13 15 20 16 9 nan nan nan nan nan nan nan nan nan nan nan nan nan nan nan nan 6 8 9 10 8 10 8 8 8 9 9 8 8 8 8 7 5 7 10 12 12 11 13 14 12 12 13 15 18 18 17 16 16 17 17 17 18 18
nan nan nan nan nan nan nan nan nan nan 29 31 25 27 27 25 25 27 24 17 12 15 11 12 13 16 19 16 19 21 21 18 16 nan nan nan nan nan nan nan nan nan nan nan nan nan nan nan 4 7 8 8 6 6 6 8 8 8 9 10 9 9 8 9 8 7 10 14 15 14 13 13 13 14 14 14 15 16 15 15 15 15 16 17 17 17
nan nan nan nan nan nan nan nan nan nan nan 30 29 24 20 19 21 20 18 18 20 16 13 9 16 19 22 23 19 22 22 21 20 15 nan nan nan nan nan nan nan nan nan nan nan nan nan 1 3 6 6 7 8 8 9 8 7 8 9 9 9 9 9 9 10 9 10 11 14 17 15 15 15 14 14 14 14 14 13 14 14 14 14 15 16 16
nan nan nan nan nan nan nan nan nan nan nan nan 22 22 23 17 21 21 16 18 19 24 19 18 19 18 19 18 19 21 23 21 22 18 nan nan nan nan nan nan nan nan nan nan nan nan nan 2 1 3 5 6 7 7 7 7 7 8 7 7 6 7 7 8 9 10 11 13 15 17 17 17 18 17 14 14 15 14 13 13 13 13 13 13 14 14
nan nan nan nan nan nan nan nan nan nan nan nan nan 17 17 16 26 27 23 20 18 17 13 18 17 14 16 19 19 26 23 22 21 17 nan nan nan nan nan nan nan nan nan nan nan nan nan nan nan nan 4 4 6 6 7 7 6 8 8 8 7 7 7 6 7 9 10 11 11 13 13 13 16 15 13 13 14 13 12 12 12 12 13 12 13 13
nan nan nan nan nan nan nan nan nan nan nan nan nan nan 19 20 24 23 20 20 19 14 9 18 19 18 19 15 18 25 20 20 22 19 17 14 13 nan nan nan nan nan nan nan nan nan nan nan nan nan 3 3 4 6 7 8 8 8 8 8 7 6 6 6 7 9 10 10 11 11 11 12 12 13 17 16 15 13 12 11 11 11 12 13 12 13
nan nan nan nan nan nan nan nan nan nan nan nan nan nan 18 17 20 18 19 21 20 21 20 23 25 21 21 18 20 24 22 22 22 19 19 16 15 13 nan nan nan nan nan nan nan nan nan nan nan nan 3 3 4 5 7 8 9 8 7 8 8 9 7 7 6 7 8 8 9 10 12 12 12 13 14 15 15 14 12 11 12 12 13 13 13 12
nan nan nan nan nan nan nan nan nan nan nan nan nan 23 14 12 18 21 20 19 18 19 13 14 20 nan nan 23 25 25 20 18 17 17 17 17 15 15 15 16 nan nan nan nan nan nan nan nan nan nan 2 3 4 5 5 6 7 7 8 8 10 10 9 9 9 8 7 7 7 7 9 11 13 13 15 14 15 14 14 13 14 13 14 14 14 13
nan nan nan nan nan nan nan nan nan nan nan nan 32 35 34 30 26 27 27 20 17 19 11 7 11 nan nan nan 17 23 23 17 14 16 17 17 16 16 16 17 19 nan nan nan nan nan nan nan nan nan 2 5 4 5 5 6 8 8 9 9 9 11 11 10 11 11 9 8 7 7 8 8 11 13 15 15 14 15 16 14 14 14 14 14 14 14
nan nan nan nan nan nan nan nan nan nan nan 30 40 42 42 42 37 37 32 29 25 nan 13 12 11 nan nan nan nan nan 8 10 14 19 22 23 22 20 19 18 21 23 nan nan nan nan nan nan nan nan nan nan 7 8 7 7 7 7 7 7 8 10 12 12 11 13 12 12 9 8 8 8 9 12 13 14 16 17 17 15 15 14 14 14 14 12
nan nan nan nan nan nan nan nan nan nan 27 33 33 36 39 42 40 38 34 nan nan nan nan 14 12 nan nan nan nan 10 20 12 14 14 16 18 20 19 22 26 30 31 29 nan nan nan nan nan nan nan nan nan nan 8 7 8 8 7 6 6 7 10 12 13 12 13 14 14 12 11 9 9 10 10 12 12 13 15 14 15 15 15 13 14 13 12
nan nan nan nan nan nan nan nan nan nan 31 37 34 36 37 34 35 29 nan nan nan nan nan 16 18 22 nan 21 nan 13 14 10 10 19 22 20 21 26 33 33 26 23 24 23 nan nan nan nan nan nan nan nan nan nan 6 6 7 7 6 5 5 7 10 11 12 11 13 14 14 12 11 11 11 11 11 12 13 14 14 14 14 13 13 12 12 11
nan nan nan nan nan nan nan nan nan nan 38 41 35 36 39 34 nan nan nan nan nan nan nan 16 19 21 nan 23 25 15 14 11 10 22 31 25 30 35 30 25 21 18 17 17 15 nan nan nan nan nan nan nan nan nan 6 7 7 7 7 5 4 5 7 9 11 11 11 12 14 13 11 11 11 11 11 11 11 12 13 13 13 12 11 11 10 9
nan nan nan nan nan nan nan nan nan nan 39 37 37 34 33 31 nan nan nan nan nan nan nan 22 23 nan nan nan nan 22 17 18 13 17 28 35 36 34 30 27 21 20 20 19 18 nan nan nan nan nan nan nan nan nan 7 7 6 6 6 5 4 6 7 8 8 11 10 11 13 14 13 12 12 10 11 11 10 9 9 11 10 11 11 9 10 8
nan nan nan nan nan nan nan nan nan nan 43 43 41 45 36 nan nan nan nan nan nan 20 nan 24 20 21 21 23 26 22 21 22 18 17 25 31 34 35 32 28 24 21 23 26 23 20 17 13 nan nan nan nan nan 5 5 5 6 5 4 3 2 3 4 6 7 9 10 10 11 13 13 13 13 13 13 12 12 10 8 7 7 8 8 8 8 8
nan nan nan nan nan nan nan nan nan nan nan nan 44 38 31 30 nan nan nan 27 29 29 26 25 23 25 24 27 32 30 27 25 20 18 21 25 28 32 31 25 21 21 22 23 22 18 17 19 18 nan nan nan nan 5 4 4 4 2 3 4 4 4 6 6 6 7 9 9 10 10 11 13 14 14 13 12 12 10 9 8 7 6 6 7 8 7
nan nan nan nan nan nan nan nan nan nan nan nan nan 33 nan nan nan nan nan 30 34 30 25 26 26 27 29 27 28 31 31 30 28 24 22 21 20 20 22 22 22 23 25 26 25 21 19 20 19 16 11 nan nan nan nan 4 4 4 4 4 4 6 5 5 5 6 7 8 9 10 11 12 13 14 13 13 12 12 11 10 9 9 7 6 6 7
nan nan nan nan nan nan nan nan nan nan nan nan nan nan nan nan nan nan nan nan nan nan 28 27 29 29 27 26 26 28 25 22 20 18 17 17 15 15 17 20 24 27 28 25 20 19 21 22 20 18 14 13 11 9 nan 5 6 8 10 8 6 4 2 3 4 6 8 8 10 10 9 10 12 13 13 13 13 14 12 10 10 8 7 8 8 8
nan nan nan nan nan nan nan nan nan nan nan nan nan nan nan nan nan nan nan nan nan 32 30 27 29 30 28 nan 28 27 20 14 14 16 17 15 14 13 15 16 18 20 21 21 21 21 22 23 22 21 19 17 14 11 8 6 7 8 9 9 8 9 10 11 9 8 7 8 10 10 11 10 11 11 12 12 12 11 11 10 10 9 10 7 8 8
nan nan nan nan nan nan nan nan nan nan nan nan nan nan nan nan nan nan nan nan nan 31 30 27 27 28 31 nan 28 26 22 20 18 20 21 21 19 18 20 22 21 20 20 21 22 23 22 21 21 22 22 19 18 18 17 11 7 8 11 10 9 9 9 10 11 12 11 11 10 10 8 9 11 10 11 12 12 10 10 11 11 10 9 11 9 9
nan nan nan nan nan nan nan nan nan nan nan nan nan nan nan nan nan nan nan nan 41 nan nan nan nan 28 nan nan 29 30 26 24 22 24 26 26 24 23 24 25 24 23 21 21 23 24 25 25 26 25 24 21 19 20 22 22 20 16 14 14 13 12 12 13 13 12 11 11 11 11 11 10 11 12 13 12 12 12 11 11 11 12 12 10 8 9
nan nan nan nan nan nan nan nan nan nan nan nan nan nan nan nan nan nan nan 36 43 nan nan nan nan nan nan 33 31 31 29 28 28 27 29 30 29 27 25 24 24 24 22 22 24 24 24 27 28 27 26 23 21 21 23 23 21 20 19 19 18 16 16 17 15 13 14 14 14 13 12 11 11 12 13 13 14 13 14 14 13 13 13 11 9 9
35 nan nan nan nan nan nan nan nan nan nan nan nan nan nan nan nan nan nan 32 39 38 42 42 41 33 nan 31 30 31 28 27 28 29 30 30 29 28 23 23 24 26 30 29 25 25 25 27 28 28 27 24 20 19 20 19 17 17 19 19 18 18 21 21 21 20 20 21 19 17 15 13 14 14 14 14 15 15 15 16 15 15 13 12 11 9
nan nan nan nan nan nan nan nan nan nan nan nan nan nan nan nan nan nan nan 40 41 33 35 nan nan 37 34 31 30 29 26 27 28 27 nan nan 28 28 24 26 29 29 29 28 27 27 28 30 31 29 24 19 16 18 21 20 22 29 32 30 26 28 27 23 21 22 23 20 17 16 17 19 18 15 13 12 14 15 16 17 17 17 14 13 12 11
nan nan nan nan nan nan nan nan nan nan nan nan nan nan nan 46 nan 45 44 42 41 37 40 nan nan 43 42 38 34 31 30 30 28 27 nan nan 28 26 25 28 29 29 28 27 27 31 32 29 27 26 22 20 21 19 21 24 27 29 26 23 24 26 22 20 21 24 23 20 16 16 18 19 17 13 11 12 13 14 16 17 18 18 17 15 12 11
nan nan nan nan nan nan nan nan nan nan nan nan nan nan nan 47 nan nan 48 nan nan 37 41 39 35 41 39 38 38 36 34 32 30 28 27 26 29 30 27 28 30 30 29 30 30 31 30 32 30 29 26 24 24 24 25 27 29 26 23 23 25 22 16 17 26 31 27 22 20 21 22 21 18 17 18 19 19 18 18 17 18 18 17 17 14 12
nan nan nan nan nan nan nan nan nan nan nan nan nan nan nan nan nan nan nan nan nan 48 41 40 35 39 33 34 35 35 34 33 30 28 27 26 28 30 31 31 32 32 32 32 33 34 35 35 32 30 25 20 20 23 26 27 28 25 25 25 24 20 16 16 23 27 25 24 23 24 25 24 22 23 24 26 27 25 22 19 19 20 19 19 16 14
nan nan nan nan nan nan nan nan nan nan nan nan nan nan nan nan nan 45 46 43 44 nan 36 36 33 34 32 31 33 34 34 31 28 25 25 26 27 30 35 36 35 34 33 35 35 35 36 37 35 33 29 22 21 23 25 28 29 29 29 29 28 25 22 21 22 22 19 22 27 29 28 26 26 27 27 28 26 25 25 25 24 23 22 20 17 16
nan nan nan nan nan nan nan nan nan nan nan nan nan nan nan nan nan 48 50 48 48 48 45 44 38 35 33 33 34 35 35 35 32 29 nan 30 30 31 34 36 36 35 35 35 35 34 35 37 36 35 34 30 26 24 25 28 30 32 31 31 30 30 27 22 22 20 20 21 25 28 27 26 29 29 30 29 27 27 28 28 30 31 28 23 19 17
nan nan nan nan nan nan nan nan nan nan nan nan nan nan 51 49 50 49 48 49 58 58 53 52 48 44 39 38 38 38 37 36 35 nan nan nan 32 32 33 34 34 34 35 36 35 34 34 35 37 37 37 34 31 29 28 28 30 32 33 33 33 32 31 30 29 27 25 22 19 15 17 23 29 31 31 31 31 32 31 29 30 33 32 27 23 21
nan nan nan nan nan nan nan nan nan nan nan nan nan nan 51 49 49 44 45 40 45 47 51 52 49 43 40 38 40 38 36 35 33 nan nan nan nan nan 35 33 32 31 30 31 32 32 34 36 37 39 37 36 35 33 31 30 30 32 32 31 32 28 26 27 29 28 24 19 18 20 22 24 27 30 31 32 32 31 32 33 35 34 29 27 25 21
nan nan nan nan nan nan nan nan nan nan nan nan nan nan 46 48 45 46 46 44 41 47 50 44 37 41 41 40 39 36 36 35 nan nan nan nan nan nan 32 31 30 29 28 28 30 31 33 35 35 36 37 35 34 33 32 30 31 31 30 30 30 28 26 25 26 27 25 24 22 20 21 23 27 31 33 34 37 37 34 35 36 34 28 21 21 23
nan nan nan nan nan nan nan nan nan nan nan nan nan nan nan 44 45 45 41 41 39 42 42 45 45 44 43 41 39 36 36 36 nan nan nan nan nan nan nan 29 29 27 27 29 29 31 32 34 35 35 36 36 34 32 31 31 32 31 29 29 30 32 29 28 28 29 29 28 23 21 20 21 23 27 30 33 36 37 36 37 36 30 25 24 24 24
nan nan nan nan nan nan nan nan nan nan nan nan nan nan nan nan 47 50 51 48 43 47 53 54 50 45 41 42 41 41 39 38 nan nan nan nan nan nan nan nan 28 26 26 27 29 32 33 34 35 36 36 36 34 32 32 33 31 30 32 31 31 31 32 30 29 29 30 30 26 23 22 21 23 24 25 29 33 34 34 32 29 26 25 26 26 26
nan nan nan nan nan nan nan nan nan nan nan nan nan nan 47 50 52 54 48 47 45 41 46 48 47 46 45 45 44 43 44 43 nan nan nan nan nan nan nan nan nan 29 27 26 29 31 33 34 34 34 34 33 35 35 34 32 31 33 32 32 33 32 32 31 31 31 31 31 29 27 26 25 25 24 23 23 26 28 29 27 27 26 26 27 28 28
nan nan nan nan nan nan nan nan nan nan nan nan nan nan 38 41 44 46 46 44 44 43 43 48 48 48 49 48 47 46 47 47 42 40 nan nan nan nan nan nan nan nan 32 nan nan 32 32 33 35 34 36 37 37 37 35 33 34 35 35 36 34 34 33 33 33 32 31 31 31 30 27 26 26 25 23 22 22 23 24 24 25 26 27 25 25 25
nan nan nan nan nan nan nan nan nan nan nan nan nan nan nan 32 34 38 47 49 48 50 45 50 50 51 51 50 49 48 49 48 42 37 nan nan nan nan nan nan nan nan nan 34 33 33 33 34 35 37 38 39 39 37 35 35 36 37 38 nan nan nan nan nan nan 31 31 30 30 30 30 29 28 27 26 25 25 22 21 21 21 22 23 21 21 22
nan nan nan nan nan nan nan nan nan nan nan nan nan nan nan nan 37 41 46 43 43 45 46 47 51 50 51 52 50 49 48 45 40 39 39 nan nan nan nan nan nan nan nan nan nan 37 36 36 nan nan 38 39 nan nan nan nan nan nan nan nan nan nan nan nan nan nan nan nan nan nan nan nan 31 30 29 28 26 24 22 21 21 20 18 18 18 21
nan nan nan nan nan nan nan nan nan nan nan nan nan 38 39 40 40 44 43 37 38 39 41 42 48 47 49 51 50 48 47 45 42 41 42 44 nan nan nan nan nan nan nan nan nan nan nan nan nan nan nan nan nan nan nan nan nan nan nan nan nan nan nan nan nan nan nan nan nan nan nan nan nan nan nan nan nan nan 25 24 24 23 21 20 20 22
nan nan nan nan nan nan nan nan nan nan nan nan nan 35 40 41 45 45 40 37 40 41 43 44 46 48 49 51 51 53 50 48 51 51 49 46 48 nan nan nan nan nan nan nan nan nan nan nan nan nan nan nan nan nan nan nan nan nan nan nan nan nan nan nan nan nan nan nan nan nan nan nan nan nan nan nan nan nan nan nan 28 27 26 25 24 25
nan nan nan nan nan nan nan nan nan nan nan nan nan 34 36 nan nan nan nan 41 42 45 45 46 46 48 52 54 50 51 56 58 nan 55 55 51 nan nan nan nan nan nan nan nan nan nan nan nan nan nan nan nan nan nan nan nan nan nan nan nan nan nan nan nan nan nan nan nan nan nan nan nan nan nan nan nan nan nan nan nan nan 33 32 31 30 nan
nan nan nan nan nan nan nan nan nan nan nan nan nan nan nan nan nan nan nan 43 42 46 47 44 45 43 48 48 42 41 47 49 nan 47 nan nan nan nan nan nan nan nan nan nan nan nan nan nan nan nan nan nan nan nan nan nan nan nan nan nan nan nan nan nan nan nan nan nan nan nan nan nan nan nan nan nan nan nan nan nan nan nan nan nan nan nan
nan nan nan nan nan nan nan nan nan nan nan nan nan nan nan nan nan nan 43 45 46 46 44 45 43 43 46 49 45 43 42 nan nan nan nan nan nan nan nan nan nan nan nan nan nan nan nan nan nan nan nan nan nan nan nan nan nan nan nan nan nan nan nan nan nan nan nan nan nan nan nan nan nan nan nan nan nan nan nan nan nan nan nan nan nan nan
nan nan 20 nan nan nan nan nan nan nan nan nan nan nan nan nan nan nan 44 43 45 46 45 48 47 46 45 50 49 50 45 nan 42 41 nan nan nan nan nan nan nan nan nan nan nan nan nan nan nan nan nan nan nan nan nan nan nan nan nan nan nan nan nan nan nan nan nan nan nan nan nan nan nan nan nan nan nan nan nan nan nan nan nan nan nan nan
nan nan nan nan nan nan nan nan nan nan nan nan nan nan nan nan nan nan nan nan 43 43 43 46 47 49 47 45 50 nan nan nan nan 47 49 nan nan nan nan nan nan nan nan nan nan nan nan nan nan nan nan nan nan nan nan nan nan nan nan nan nan nan nan nan nan nan nan nan nan nan nan nan nan nan nan nan nan nan nan nan nan nan nan nan nan nan
nan nan nan nan nan nan nan nan nan nan nan nan nan nan nan nan nan nan nan 43 42 43 44 44 47 48 51 52 49 nan nan nan nan nan nan nan nan nan nan nan nan nan nan nan nan nan nan nan nan nan nan nan nan nan nan nan nan nan nan nan nan nan nan nan nan nan nan nan nan nan nan nan nan nan nan nan nan nan nan nan nan nan nan nan nan nan
nan nan nan nan nan nan nan nan nan nan nan nan nan nan nan nan nan nan nan nan 41 42 43 43 45 47 48 47 46 45 nan nan nan nan 50 nan nan nan nan nan nan nan nan nan nan nan nan nan nan nan nan nan nan nan nan nan nan nan nan nan nan nan nan nan nan nan nan nan nan nan nan nan nan nan nan nan nan nan nan nan nan nan nan nan nan nan
nan nan nan nan nan nan nan nan nan nan nan nan nan nan nan nan nan nan nan nan nan nan nan 43 43 nan nan nan nan nan nan nan nan nan nan nan nan nan nan nan nan nan nan nan nan nan nan nan nan nan nan nan nan nan nan nan nan nan nan nan nan nan nan nan nan nan nan nan nan nan nan nan nan nan nan nan nan nan nan nan nan nan nan nan nan nan
nan nan nan nan nan nan nan nan nan nan nan nan nan nan nan nan nan nan nan nan nan nan nan nan nan nan nan nan nan nan nan nan nan nan nan nan nan nan nan nan nan nan nan nan nan nan nan nan nan nan nan nan nan nan nan nan nan nan nan nan nan nan nan nan nan nan nan nan nan nan nan nan nan nan nan nan nan nan nan nan nan nan nan nan nan nan
nan nan nan nan nan nan nan nan nan nan nan nan nan nan nan nan nan nan nan nan nan nan nan nan nan nan nan nan nan nan nan nan nan nan nan nan nan nan nan nan nan nan nan nan nan nan nan nan nan nan nan nan nan nan nan nan nan nan nan nan nan nan nan nan nan nan nan nan nan nan nan nan nan nan nan nan nan nan nan nan nan nan nan nan nan nan
Wind_Direction
nan nan nan nan nan nan nan nan nan nan nan nan nan 224 232 219 215 223 228 263 286 281 300 240 212 209 210 189 184 177 167 162 nan nan nan nan nan nan nan nan nan nan nan nan nan nan nan 126 132 143 145 144 139 140 139 135 138 132 121 122 118 133 148 155 148 129 121 124 129 133 120 119 118 112 109 104 103 102 102 105 108 112 115 118 120 122
nan nan nan nan nan nan nan nan nan nan nan nan 215 222 223 221 218 209 225 232 208 207 233 225 210 211 220 198 198 181 167 142 nan nan nan nan nan nan nan nan nan nan nan nan nan nan nan nan 142 153 153 157 150 140 141 135 138 139 134 123 138 144 146 148 142 129 121 121 118 127 121 128 127 117 109 107 106 106 105 107 111 116 120 122 122 125
nan nan nan nan nan nan nan nan nan nan 203 205 217 222 225 215 223 216 222 218 209 212 217 228 231 215 218 206 195 186 175 176 165 nan nan nan nan nan nan nan nan nan nan nan nan nan nan nan 148 152 150 143 128 126 129 144 155 149 141 138 151 146 148 147 148 147 128 128 129 137 136 133 138 135 128 120 117 113 110 109 110 113 117 121 124 125
nan nan nan nan nan nan nan nan nan nan nan 211 216 224 222 233 232 218 214 219 199 203 228 220 227 213 214 211 195 191 179 175 173 164 nan nan nan nan nan nan nan nan nan nan nan nan nan 199 156 148 145 139 147 150 157 157 154 154 148 148 154 147 150 151 144 140 137 128 131 144 147 146 147 136 134 130 126 119 117 112 113 114 114 118 122 124
nan nan nan nan nan nan nan nan nan nan nan nan 214 217 226 237 213 221 229 223 219 208 233 235 213 205 214 219 198 199 189 172 177 187 nan nan nan nan nan nan nan nan nan nan nan nan nan 214 127 115 132 150 149 152 152 153 154 156 148 149 154 146 142 149 145 144 147 149 150 150 153 150 151 155 145 137 126 118 116 119 116 112 119 120 123 126
nan nan nan nan nan nan nan nan nan nan nan nan nan 220 234 237 236 239 244 241 216 215 214 250 222 205 213 207 204 206 192 174 188 193 nan nan nan nan nan nan nan nan nan nan nan nan nan nan nan nan 154 139 144 146 146 149 155 165 166 163 162 157 146 145 146 150 150 141 141 144 141 143 145 143 135 119 111 111 110 108 119 125 122 125 130 132
nan nan nan nan nan nan nan nan nan nan nan nan nan nan 234 243 248 257 247 232 225 228 213 201 222 207 207 204 209 210 193 172 189 192 190 198 185 nan nan nan nan nan nan nan nan nan nan nan nan nan 127 113 129 134 156 163 164 173 173 166 161 156 147 144 153 158 157 149 141 129 125 131 130 129 125 126 124 117 122 131 123 123 127 128 131 134
nan nan nan nan nan nan nan nan nan nan nan nan nan nan 245 249 258 252 243 223 218 221 222 209 207 216 205 194 208 219 203 184 184 186 189 194 187 183 nan nan nan nan nan nan nan nan nan nan nan nan 83 106 103 149 169 168 171 176 172 169 160 159 152 147 171 173 160 153 144 137 132 132 131 124 121 124 125 135 139 135 131 132 128 129 132 133
nan nan nan nan nan nan nan nan nan nan nan nan nan 240 246 247 243 244 229 222 232 239 236 206 195 nan nan 202 215 219 211 197 180 186 187 190 191 183 197 195 nan nan nan nan nan nan nan nan nan nan 86 132 175 178 174 164 168 174 175 172 167 160 156 152 170 187 174 163 146 136 133 132 130 130 132 137 141 142 142 140 141 137 133 132 133 133
nan nan nan nan nan nan nan nan nan nan nan nan 214 214 216 215 224 223 211 211 221 224 229 233 209 nan nan nan 212 213 204 203 197 189 187 193 199 188 192 199 190 nan nan nan nan nan nan nan nan nan 196 207 181 172 176 177 181 182 181 175 170 159 158 157 169 185 183 177 170 153 142 133 137 147 152 149 148 147 145 140 138 138 136 133 134 134
nan nan nan nan nan nan nan nan nan nan nan 221 233 227 217 213 209 207 207 200 208 nan 210 239 237 nan nan nan nan nan 204 243 232 208 195 196 198 192 187 199 194 191 nan nan nan nan nan nan nan nan nan nan 196 185 192 190 184 187 181 174 167 158 162 162 168 181 181 183 183 169 154 147 148 154 157 155 151 153 150 141 138 138 135 139 132 136
nan nan nan nan nan nan nan nan nan nan 217 234 221 227 223 207 210 213 204 nan nan nan nan 260 255 nan nan nan nan 177 211 256 259 237 216 201 198 195 193 200 201 200 189 nan nan nan nan nan nan nan nan nan nan 196 196 191 190 187 178 177 169 168 166 165 170 179 180 184 182 180 171 160 156 161 159 151 148 148 145 143 139 141 145 141 139 142
nan nan nan nan nan nan nan nan nan nan 209 218 226 227 226 209 212 210 nan nan nan nan nan 255 253 222 nan 218 nan 228 211 244 260 232 218 205 198 206 208 208 204 201 209 198 nan nan nan nan nan nan nan nan nan nan 201 203 193 187 182 181 179 163 169 166 172 175 180 181 181 183 177 169 167 163 162 158 157 153 148 148 148 150 145 148 146 141
nan nan nan nan nan nan nan nan nan nan 208 220 225 226 225 215 nan nan nan nan nan nan nan 244 244 216 nan 209 209 233 242 250 278 232 213 197 201 214 214 211 204 198 207 216 215 nan nan nan nan nan nan nan nan nan 212 210 197 188 184 178 169 158 173 177 176 177 182 180 181 183 180 179 178 169 167 165 164 158 154 155 152 151 152 151 145 150
nan nan nan nan nan nan nan nan nan nan 215 220 221 230 228 227 nan nan nan nan nan nan nan 230 234 nan nan nan nan 198 236 241 267 242 211 204 214 216 211 207 203 197 195 212 217 nan nan nan nan nan nan nan nan nan 217 212 201 197 191 182 166 180 179 185 181 185 184 183 184 184 183 186 185 179 173 168 168 168 164 163 162 157 161 157 154 156
nan nan nan nan nan nan nan nan nan nan 216 210 215 216 229 nan nan nan nan nan nan 209 nan 209 211 211 211 207 200 203 226 230 243 237 222 212 215 219 216 211 199 199 201 197 208 208 203 208 nan nan nan nan nan 228 224 226 217 206 192 189 184 193 199 194 193 191 191 187 189 189 188 188 189 185 181 177 176 174 175 179 174 165 165 160 167 168
nan nan nan nan nan nan nan nan nan nan nan nan 221 221 214 216 nan nan nan 205 211 211 204 206 204 206 205 206 207 208 219 222 225 221 217 220 221 220 218 213 205 203 206 201 202 202 208 213 216 nan nan nan nan 229 244 248 244 249 221 211 201 203 211 210 203 205 202 200 196 189 193 196 194 193 189 183 181 180 183 191 191 187 177 181 186 185
nan nan nan nan nan nan nan nan nan nan nan nan nan 215 nan nan nan nan nan 207 210 213 204 205 200 200 207 203 203 213 215 211 212 207 209 217 232 229 219 218 214 210 204 203 198 193 202 212 218 220 220 nan nan nan nan 237 224 219 230 238 233 221 223 213 220 216 214 212 204 199 197 197 198 197 195 193 192 192 193 194 199 204 206 197 201 204
nan nan nan nan nan nan nan nan nan nan nan nan nan nan nan nan nan nan nan nan nan nan 209 200 199 198 202 199 207 216 216 214 218 218 215 222 225 222 218 225 225 217 213 210 203 197 202 209 211 214 216 213 213 198 nan 212 225 214 203 205 227 248 263 286 244 233 220 220 213 210 206 206 204 202 200 198 201 205 202 199 204 210 214 217 216 217
nan nan nan nan nan nan nan nan nan nan nan nan nan nan nan nan nan nan nan nan nan 219 216 206 202 199 202 nan 210 225 232 233 244 237 231 237 226 217 214 226 227 217 210 210 203 204 208 206 204 210 216 216 214 214 209 218 226 225 220 219 209 207 210 207 207 226 233 226 223 219 215 212 216 212 209 207 211 213 210 207 210 208 213 217 223 219
nan nan nan nan nan nan nan nan nan nan nan nan nan nan nan nan nan nan nan nan nan 225 218 226 209 198 202 nan 214 226 226 220 230 242 236 228 224 214 215 212 213 211 209 209 208 209 212 210 205 206 210 209 209 211 209 212 237 233 223 220 218 228 229 222 215 209 207 217 219 226 226 223 225 224 220 216 215 217 216 215 216 216 215 222 218 220
nan nan nan nan nan nan nan nan nan nan nan nan nan nan nan nan nan nan nan nan 222 nan nan nan nan 204 nan nan 215 226 221 220 228 242 235 227 224 213 210 211 211 212 209 213 214 215 216 216 213 213 210 206 212 221 222 212 213 224 226 217 215 215 217 224 220 214 214 214 215 218 219 218 222 227 229 226 222 220 219 221 223 224 224 226 221 228
nan nan nan nan nan nan nan nan nan nan nan nan nan nan nan nan nan nan nan 221 224 nan nan nan nan nan nan 205 215 223 223 224 222 228 233 236 225 214 208 212 214 210 215 218 217 218 218 216 215 215 211 208 213 220 229 231 235 236 242 239 229 215 211 217 217 215 217 218 219 217 218 220 220 227 233 235 231 227 226 225 226 230 235 233 229 232
190 nan nan nan nan nan nan nan nan nan nan nan nan nan nan nan nan nan nan 228 231 228 226 220 221 215 nan 212 219 225 225 227 226 226 221 220 233 229 218 209 216 219 214 212 215 215 213 215 215 216 216 214 212 217 230 240 245 246 245 248 253 250 239 231 223 223 225 226 224 221 219 216 217 220 223 229 231 234 232 230 228 230 234 237 237 240
nan nan nan nan nan nan nan nan nan nan nan nan nan nan nan nan nan nan nan 217 228 225 229 nan nan 224 223 223 224 232 229 229 228 222 nan nan 227 227 228 222 213 218 218 212 212 219 222 222 225 226 226 221 218 216 223 229 231 228 224 223 228 233 235 236 236 238 236 235 233 230 230 223 219 216 219 223 231 234 236 236 234 231 230 234 236 239
nan nan nan nan nan nan nan nan nan nan nan nan nan nan nan 223 nan 225 223 218 224 221 228 nan nan 227 234 234 236 236 236 234 234 236 nan nan 233 229 228 226 222 221 216 216 218 224 227 227 228 233 225 214 208 213 224 233 238 239 236 240 245 244 240 241 244 246 245 241 242 238 238 238 234 227 222 227 232 235 237 239 238 236 230 229 229 233
nan nan nan nan nan nan nan nan nan nan nan nan nan nan nan 215 nan nan 224 nan nan 227 229 223 237 249 243 246 243 245 243 245 246 241 240 237 235 233 231 226 225 225 224 224 223 225 228 231 232 229 225 217 208 203 214 227 235 238 241 248 253 257 253 244 242 240 235 228 230 232 231 232 232 230 229 228 226 227 233 235 237 238 234 230 223 223
nan nan nan nan nan nan nan nan nan nan nan nan nan nan nan nan nan nan nan nan nan 233 221 225 244 253 247 246 247 253 250 248 246 244 239 234 234 239 237 231 228 228 228 228 228 228 229 231 233 237 234 224 216 218 222 230 240 246 247 249 252 257 258 250 252 254 244 229 228 233 235 229 224 223 223 225 225 223 223 227 233 232 232 231 227 224
nan nan nan nan nan nan nan nan nan nan nan nan nan nan nan nan nan 224 218 228 234 nan 235 243 244 248 251 248 249 250 253 252 252 247 239 235 237 241 239 231 224 223 226 228 229 230 232 235 237 240 241 233 226 227 233 238 242 243 244 243 245 243 240 233 239 249 247 233 226 225 229 232 227 223 222 226 225 220 219 223 227 231 230 227 226 224
nan nan nan nan nan nan nan nan nan nan nan nan nan nan nan nan nan 228 227 222 223 224 232 250 241 240 245 249 246 249 250 250 247 242 nan 240 240 239 237 232 226 222 224 227 230 229 232 236 238 239 239 236 232 230 234 239 241 241 238 236 233 234 233 242 253 257 258 247 230 223 226 231 229 227 229 228 225 224 221 218 224 224 225 227 223 222
nan nan nan nan nan nan nan nan nan nan nan nan nan nan 216 220 223 223 229 229 231 230 237 240 240 239 230 237 240 240 243 245 248 nan nan nan 234 237 237 234 231 228 225 227 226 227 231 233 238 239 238 237 235 233 233 234 238 240 239 235 229 228 232 239 243 242 244 247 240 236 239 235 231 232 232 228 224 224 224 220 222 225 216 211 219 223
nan nan nan nan nan nan nan nan nan nan nan nan nan nan 215 220 226 223 229 224 231 237 239 241 240 238 236 239 240 241 243 250 256 nan nan nan nan nan 237 233 228 227 226 227 226 226 229 232 236 239 238 237 236 233 230 231 233 237 238 236 234 230 232 236 239 238 238 236 236 229 233 235 239 238 235 233 227 227 228 222 222 223 219 199 199 215
nan nan nan nan nan nan nan nan nan nan nan nan nan nan 216 222 225 228 227 225 237 247 242 242 243 243 247 247 250 247 249 250 nan nan nan nan nan nan 231 229 226 227 229 229 230 229 230 233 235 238 239 238 235 233 230 230 232 234 236 237 236 237 236 240 237 236 237 238 233 229 230 233 238 238 237 238 235 233 233 227 223 218 210 205 201 208
nan nan nan nan nan nan nan nan nan nan nan nan nan nan nan 223 231 230 228 233 242 234 232 234 244 244 248 249 254 254 252 250 nan nan nan nan nan nan nan 227 226 228 230 232 234 233 232 232 233 235 236 238 236 233 232 231 234 235 237 238 235 236 238 242 241 241 241 242 238 242 243 239 240 242 239 239 240 237 231 227 225 220 216 218 224 222
nan nan nan nan nan nan nan nan nan nan nan nan nan nan nan nan 228 231 229 228 224 231 238 238 240 247 246 245 247 248 247 241 nan nan nan nan nan nan nan nan 237 236 233 234 234 233 233 234 235 236 235 235 236 234 235 234 235 237 237 237 237 234 235 236 239 238 238 238 236 238 240 241 239 241 240 239 238 234 232 232 234 229 221 226 234 233
nan nan nan nan nan nan nan nan nan nan nan nan nan nan 216 224 232 236 229 224 220 228 240 242 241 243 246 247 245 245 247 245 nan nan nan nan nan nan nan nan nan 246 241 234 236 234 235 235 236 236 235 233 235 234 234 235 236 240 240 241 241 238 236 236 236 235 235 234 232 231 232 232 234 238 241 239 237 235 235 235 234 231 232 233 231 229
nan nan nan nan nan nan nan nan nan nan nan nan nan nan 220 220 226 236 238 227 223 226 237 242 239 241 244 245 247 246 247 247 243 237 nan nan nan nan nan nan nan nan 249 nan nan 234 231 234 236 236 235 234 232 233 232 232 235 238 238 239 240 241 239 239 240 237 236 235 233 233 233 233 233 235 238 239 240 241 238 237 239 240 239 233 233 231
nan nan nan nan nan nan nan nan nan nan nan nan nan nan nan 221 225 220 230 229 227 230 234 249 248 248 248 249 250 250 249 247 245 242 nan nan nan nan nan nan nan nan nan 244 241 235 231 231 233 233 237 237 234 232 233 234 236 237 237 nan nan nan nan nan nan 238 238 237 234 233 234 235 235 234 235 237 238 239 241 244 246 246 246 241 237 238
nan nan nan nan nan nan nan nan nan nan nan nan nan nan nan nan 224 229 233 233 229 234 234 242 251 254 257 256 254 253 251 251 250 247 246 nan nan nan nan nan nan nan nan nan nan 238 235 233 nan nan 236 236 nan nan nan nan nan nan nan nan nan nan nan nan nan nan nan nan nan nan nan nan 237 236 236 237 237 239 241 245 249 251 252 250 246 240
nan nan nan nan nan nan nan nan nan nan nan nan nan 214 217 219 231 236 241 235 233 232 239 242 252 250 247 251 254 254 253 256 254 250 250 254 nan nan nan nan nan nan nan nan nan nan nan nan nan nan nan nan nan nan nan nan nan nan nan nan nan nan nan nan nan nan nan nan nan nan nan nan nan nan nan nan nan nan 241 244 247 250 255 255 251 244
nan nan nan nan nan nan nan nan nan nan nan nan nan 225 223 232 237 240 244 242 239 238 243 245 249 249 246 241 237 239 230 236 247 249 249 248 247 nan nan nan nan nan nan nan nan nan nan nan nan nan nan nan nan nan nan nan nan nan nan nan nan nan nan nan nan nan nan nan nan nan nan nan nan nan nan nan nan nan nan nan 242 246 251 251 249 248
nan nan nan nan nan nan nan nan nan nan nan nan nan 230 229 nan nan nan nan 240 243 244 245 250 247 244 242 236 237 242 241 240 nan 242 243 243 nan nan nan nan nan nan nan nan nan nan nan nan nan nan nan nan nan nan nan nan nan nan nan nan nan nan nan nan nan nan nan nan nan nan nan nan nan nan nan nan nan nan nan nan nan 244 247 250 249 nan
nan nan nan nan nan nan nan nan nan nan nan nan nan nan nan nan nan nan nan 233 238 248 251 249 252 251 250 248 250 249 249 253 nan 240 nan nan nan nan nan nan nan nan nan nan nan nan nan nan nan nan nan nan nan nan nan nan nan nan nan nan nan nan nan nan nan nan nan nan nan nan nan nan nan nan nan nan nan nan nan nan nan nan nan nan nan nan
nan nan nan nan nan nan nan nan nan nan nan nan nan nan nan nan nan nan 239 237 233 241 248 248 248 255 254 255 258 260 258 nan nan nan nan nan nan nan nan nan nan nan nan nan nan nan nan nan nan nan nan nan nan nan nan nan nan nan nan nan nan nan nan nan nan nan nan nan nan nan nan nan nan nan nan nan nan nan nan nan nan nan nan nan nan nan
nan nan 242 nan nan nan nan nan nan nan nan nan nan nan nan nan nan nan 237 238 243 238 237 245 245 244 249 257 257 261 259 nan 256 252 nan nan nan nan nan nan nan nan nan nan nan nan nan nan nan nan nan nan nan nan nan nan nan nan nan nan nan nan nan nan nan nan nan nan nan nan nan nan nan nan nan nan nan nan nan nan nan nan nan nan nan nan
nan nan nan nan nan nan nan nan nan nan nan nan nan nan nan nan nan nan nan nan 237 240 240 246 245 247 243 249 258 nan nan nan nan 253 250 nan nan nan nan nan nan nan nan nan nan nan nan nan nan nan nan nan nan nan nan nan nan nan nan nan nan nan nan nan nan nan nan nan nan nan nan nan nan nan nan nan nan nan nan nan nan nan nan nan nan nan
nan nan nan nan nan nan nan nan nan nan nan nan nan nan nan nan nan nan nan 240 244 246 246 244 249 246 246 239 236 nan nan nan nan nan nan nan nan nan nan nan nan nan nan nan nan nan nan nan nan nan nan nan nan nan nan nan nan nan nan nan nan nan nan nan nan nan nan nan nan nan nan nan nan nan nan nan nan nan nan nan nan nan nan nan nan nan
nan nan nan nan nan nan nan nan nan nan nan nan nan nan nan nan nan nan nan nan 242 244 248 250 247 247 249 250 252 249 nan nan nan nan 252 nan nan nan nan nan nan nan nan nan nan nan nan nan nan nan nan nan nan nan nan nan nan nan nan nan nan nan nan nan nan nan nan nan nan nan nan nan nan nan nan nan nan nan nan nan nan nan nan nan nan nan
nan nan nan nan nan nan nan nan nan nan nan nan nan nan nan nan nan nan nan nan nan nan nan 244 249 nan nan nan nan nan nan nan nan nan nan nan nan nan nan nan nan nan nan nan nan nan nan nan nan nan nan nan nan nan nan nan nan nan nan nan nan nan nan nan nan nan nan nan nan nan nan nan nan nan nan nan nan nan nan nan nan nan nan nan nan nan
nan nan nan nan nan nan nan nan nan nan nan nan nan nan nan nan nan nan nan nan nan nan nan nan nan nan nan nan nan nan nan nan nan nan nan nan nan nan nan nan nan nan nan nan nan nan nan nan nan nan nan nan nan nan nan nan nan nan nan nan nan nan nan nan nan nan nan nan nan nan nan nan nan nan nan nan nan nan nan nan nan nan nan nan nan nan
nan nan nan nan nan nan nan nan nan nan nan nan nan nan nan nan nan nan nan nan nan nan nan nan nan nan nan nan nan nan nan nan nan nan nan nan nan nan nan nan nan nan nan nan nan nan nan nan nan nan nan nan nan nan nan nan nan nan nan nan nan nan nan nan nan nan nan nan nan nan nan nan nan nan nan nan nan nan nan nan nan nan nan nan nan nan